Location: Lafig�re
(44.4503°N, 4.0357°E)
Time: 21:59:23
(UTC+00:00)

Cosmos 1092 Rocket - Pass Details

Date: 30 January 2021
Orbit: 954 x 995 km, 83.0° (Epoch: 07 March)

Event Time Altitude Azimuth Distance (km) Brightness Sun altitude
Rises 04:00:19 0° 357° (N) 3,647 7.1 -32.9°
Reaches altitude 10° 04:02:57 10° 4° (N) 2,700 6.4 -32.5°
Maximum altitude 04:08:49 44° 75° (ENE) 1,318 5.0 -31.4°
Drops below altitude 10° 04:14:41 10° 147° (SSE) 2,705 6.6 -30.4°
Sets 04:17:19 0° 153° (SSE) 3,654 7.3 -29.9°
